Location: Kellogg
(38.0159°N, 90.0546°W)
Time: 23:19:27
(UTC+00:00)

Vanguard 2 - Pass Details

Date: 23 September 2024
Orbit: 552 x 2910 km, 32.9° (Epoch: 09 October)

Event Time Altitude Azimuth Distance (km) Brightness Sun altitude
Rises 06:16:44 0° 228° (SW) 2,935 - -51.9°
Reaches altitude 10° 06:19:35 10° 212° (SSW) 1,885 - -51.8°
Maximum altitude 06:22:43 21° 161° (SSE) 1,252 - -51.6°
Drops below altitude 10° 06:25:48 10° 110° (ESE) 1,848 - -51.5°
Sets 06:28:33 0° 93° (E) 2,857 - -51.4°
